TimeCST,TemperatureF,Dew PointF,Humidity,Sea Level PressureIn,VisibilityMPH,Wind Direction,Wind SpeedMPH,Gust SpeedMPH,PrecipitationIn,Events,Conditions,WindDirDegrees,DateUTC
12:02 AM,41.0,37.4,87,29.84,5.0,North,18.4,-,0.03,Rain,Rain,360,2013-01-13 06:02:00
12:12 AM,41.0,35.6,81,29.85,6.0,North,20.7,26.5,0.05,Rain,Rain,350,2013-01-13 06:12:00
12:26 AM,39.2,35.6,87,29.83,3.0,North,23.0,29.9,0.12,Rain,Heavy Rain,360,2013-01-13 06:26:00
12:34 AM,39.2,35.6,87,29.83,4.0,North,18.4,-,0.15,Rain,Heavy Rain,360,2013-01-13 06:34:00
12:53 AM,39.0,36.0,89,29.84,8.0,North,20.7,26.5,0.21,Rain,Light Rain,350,2013-01-13 06:53:00
1:09 AM,37.4,35.6,93,29.86,4.0,North,18.4,26.5,0.06,Rain-Thunderstorm,Heavy Rain,10,2013-01-13 07:09:00
1:16 AM,37.4,35.6,93,29.87,4.0,North,15.0,24.2,0.09,Rain-Thunderstorm,Heavy Rain,360,2013-01-13 07:16:00
1:29 AM,37.4,35.6,93,29.88,5.0,North,16.1,21.9,0.16,Rain,Heavy Rain,10,2013-01-13 07:29:00
1:46 AM,37.4,35.6,93,29.85,4.0,North,20.7,27.6,0.25,Rain,Heavy Rain,10,2013-01-13 07:46:00
1:53 AM,37.9,34.0,86,29.86,5.0,North,19.6,27.6,0.27,Rain,Rain,10,2013-01-13 07:53:00
2:53 AM,39.0,35.1,86,29.92,10.0,North,10.4,19.6,0.08,Rain,Light Rain,360,2013-01-13 08:53:00
3:44 AM,39.2,35.6,87,29.88,10.0,NNE,12.7,-,0.00,,Overcast,20,2013-01-13 09:44:00
3:53 AM,39.9,35.1,83,29.89,10.0,North,15.0,-,0.00,,Overcast,10,2013-01-13 09:53:00
4:53 AM,39.0,34.0,82,29.96,10.0,NNW,10.4,-,0.00,Rain,Light Rain,340,2013-01-13 10:53:00
5:48 AM,39.2,33.8,81,29.96,10.0,North,12.7,-,0.00,Rain,Light Rain,360,2013-01-13 11:48:00
5:53 AM,39.0,34.0,82,29.97,10.0,North,9.2,-,0.00,,Overcast,350,2013-01-13 11:53:00
6:53 AM,37.9,33.1,83,30.01,10.0,NNW,13.8,21.9,N/A,,Overcast,340,2013-01-13 12:53:00
7:53 AM,37.0,33.1,86,30.00,10.0,North,12.7,-,0.00,,Overcast,350,2013-01-13 13:53:00
8:27 AM,37.4,33.8,87,29.98,10.0,NNW,11.5,-,N/A,,Overcast,340,2013-01-13 14:27:00
8:53 AM,37.0,33.1,86,29.99,10.0,NNE,10.4,-,N/A,,Overcast,20,2013-01-13 14:53:00
9:17 AM,37.4,32.0,81,30.00,10.0,North,12.7,-,N/A,,Overcast,350,2013-01-13 15:17:00
9:38 AM,35.6,32.0,87,30.05,10.0,NW,13.8,-,N/A,,Overcast,310,2013-01-13 15:38:00
9:53 AM,36.0,30.9,82,30.05,5.0,NNW,13.8,-,0.00,Rain,Light Rain,340,2013-01-13 15:53:00
10:14 AM,35.6,30.2,81,30.06,5.0,NNW,12.7,-,0.03,Rain,Rain,330,2013-01-13 16:14:00
10:50 AM,35.6,30.2,81,30.00,7.0,NNW,18.4,-,0.06,Rain,Light Rain,340,2013-01-13 16:50:00
10:53 AM,35.1,30.9,85,30.01,7.0,North,15.0,23.0,0.06,Rain,Light Rain,350,2013-01-13 16:53:00
11:09 AM,35.6,30.2,81,30.03,10.0,NNW,9.2,-,0.01,Rain,Light Rain,330,2013-01-13 17:09:00
11:35 AM,35.6,30.2,81,30.02,9.0,NNW,11.5,-,0.02,Rain,Light Rain,340,2013-01-13 17:35:00
11:53 AM,35.1,30.0,82,30.04,10.0,NNW,15.0,-,0.02,Rain,Light Rain,330,2013-01-13 17:53:00
12:05 PM,33.8,30.2,87,30.01,10.0,NNW,15.0,-,0.00,,Overcast,340,2013-01-13 18:05:00
12:53 PM,34.0,28.9,82,30.05,10.0,NW,13.8,21.9,0.00,,Overcast,320,2013-01-13 18:53:00
1:53 PM,33.1,28.0,82,30.12,10.0,NNW,8.1,-,N/A,,Overcast,330,2013-01-13 19:53:00
2:22 PM,33.8,26.6,75,30.10,10.0,NNW,11.5,-,N/A,,Overcast,340,2013-01-13 20:22:00
2:36 PM,33.8,26.6,75,30.11,10.0,NNW,15.0,-,N/A,,Overcast,330,2013-01-13 20:36:00
2:53 PM,34.0,27.0,75,30.14,10.0,NNW,12.7,-,N/A,,Overcast,340,2013-01-13 20:53:00
3:21 PM,33.8,28.4,81,30.14,10.0,NNW,11.5,-,N/A,,Overcast,340,2013-01-13 21:21:00
3:53 PM,34.0,27.0,75,30.18,10.0,NW,13.8,-,N/A,,Overcast,320,2013-01-13 21:53:00
4:53 PM,34.0,27.0,75,30.21,10.0,NNW,12.7,-,N/A,,Overcast,330,2013-01-13 22:53:00
5:25 PM,33.8,26.6,75,30.21,10.0,North,8.1,-,N/A,,Scattered Clouds,350,2013-01-13 23:25:00
5:53 PM,33.1,25.0,72,30.24,10.0,North,9.2,-,N/A,,Partly Cloudy,350,2013-01-13 23:53:00
6:53 PM,30.9,21.9,69,30.25,10.0,NNW,12.7,-,N/A,,Clear,340,2013-01-14 00:53:00
7:53 PM,28.9,21.0,72,30.28,10.0,NNW,9.2,-,N/A,,Clear,340,2013-01-14 01:53:00
8:53 PM,28.0,21.0,75,30.30,10.0,NNW,10.4,-,N/A,,Clear,340,2013-01-14 02:53:00
9:53 PM,27.0,19.9,75,30.33,10.0,NNW,6.9,-,N/A,,Clear,340,2013-01-14 03:53:00
10:53 PM,27.0,19.0,72,30.35,10.0,North,9.2,-,N/A,,Clear,350,2013-01-14 04:53:00
11:53 PM,26.1,18.0,71,30.37,10.0,North,8.1,-,N/A,,Clear,350,2013-01-14 05:53:00